Regional Weather Roundup
Issued by NWS Upton, NY

Current Version | Previous Version | Text Only | Print | Product List | Glossary Off
Versions: 1 2 3 4 5 6 7 8 9 10 11 12 13 14 15 16 17 18 19 20 21 22 23 24 25 26 27
000 ASUS41 KOKX 310704 RWROKX REGIONAL WEATHER ROUNDUP NATIONAL WEATHER SERVICE NEW YORK NY 300 AM EDT TUE MAY 31 2016 NOTE: "FAIR" INDICATES FEW OR NO CLOUDS BELOW 12,000 FEET WITH NO SIGNIFICANT WEATHER AND/OR OBSTRUCTIONS TO VISIBILITY. NYZ071-072-176-178-NJZ106-104-310800- NEW YORK CITY METRO AREA CITY SKY/WX TMP DP RH WIND PRES REMARKS CENTRAL PARK CLOUDY 72 66 81 MISG 29.96S LAGUARDIA APRT CLOUDY 74 67 79 SW7 29.92S KENNEDY INTL CLOUDY 67 65 93 S7 29.95S NEWARK/LIBERTY CLOUDY 72 68 87 SW7 29.93S BRNX BOT. GARD N/A 72 66 83 CALM 29.93F TETERBORO PTCLDY 72 66 81 S6 29.92S $$ NYZ177-179-078>081-310800- LONG ISLAND NEW YORK CITY SKY/WX TMP DP RH WIND PRES REMARKS FARMINGDALE CLOUDY 67 65 93 SW7 29.94S ISLIP NOT AVBL SHIRLEY FOG 67 66 97 SW7 29.95F VSB 3/4 RIVERHEAD N/A 68 66 94 CALM 29.93S WESTHAMPTON FOG 64 63 96 SW7 29.96S VSB 1/4 EAST HAMPTON FOG 65 64 97 SW7 29.94S VSB 1 MONTAUK POINT N/A 65 65 100 SW7 29.95F $$ NYZ052-065-067-310800- HUDSON VALLEY CITY SKY/WX TMP DP RH WIND PRES REMARKS WHITE PLAINS PTCLDY 70 67 90 W6 29.93S NEWBURGH PTCLDY 66 64 94 W8 29.94S MONTGOMERY CLOUDY 64 62 93 S6 29.93S POUGHKEEPSIE CLOUDY 70 63 78 CALM 29.92R ALBANY CLOUDY 66 60 81 W7 29.93R $$ NJZ001-105-106-008-010-013-015-019>022-104-310800- NEW JERSEY CITY SKY/WX TMP DP RH WIND PRES REMARKS NEWARK/LIBERTY CLOUDY 72 68 87 SW7 29.93S TETERBORO PTCLDY 72 66 81 S6 29.92S CALDWELL MOCLDY 71 67 87 CALM 29.94S MORRISTOWN PTCLDY 68 66 94 CALM 29.93F SOMERVILLE FOG 67 65 93 CALM 29.93R VSB 1 SUSSEX PTCLDY 64 62 93 CALM 29.95S FOG ANDOVER N/A 68 66 93 CALM 29.96R TRENTON PTCLDY 70 67 90 CALM 29.94S MILLVILLE CLOUDY 69 67 93 CALM 29.96R ATLANTIC CITY CLOUDY 69 68 96 CALM 29.96S WRIGHTSTOWN CLOUDY 70 68 94 SW5 29.94S TOMS RIVER CLOUDY 68 64 88 SW3 29.96S VSB 1/2 BELMAR CLOUDY 68 67 96 SW5 29.97R $$ PAZ047>061-062-071-310800- EASTERN PENNSYLVANIA CITY SKY/WX TMP DP RH WIND PRES REMARKS PHILADELPHIA CLOUDY 72 67 84 SW6 29.96R ALLENTOWN PTCLDY 67 63 87 NW3 29.95S SCRANTON CLOUDY 61 60 97 SE3 29.97S FOG $$ CTZ002-004>006-009-010-012-RIZ004-006-007-MAZ004-011-015-310800- SOUTHERN NEW ENGLAND IN CT CITY SKY/WX TMP DP RH WIND PRES REMARKS BRADLEY INTL CLOUDY 70 68 93 CALM 29.90R HARTFORD CLOUDY 72 68 87 S8 29.91R DANBURY CLOUDY 69 67 93 W6 29.94S WTRBRY/OXFORD N/A 68 64 88 CALM 29.95S BRIDGEPORT CLOUDY 68 65 90 SW5 29.93R MERIDEN CLOUDY 69 66 90 S5 29.92S NEW HAVEN CLOUDY 67 65 93 SW5 29.94R CHESTER CLOUDY 68 66 94 SW7 29.95R GROTON LGT RAIN 66 65 96 SW3 29.93R WILLIMANTIC CLOUDY 72 67 84 CALM 29.92S IN RI CITY SKY/WX TMP DP RH WIND PRES REMARKS PROVIDENCE CLOUDY 70 65 84 SW8 29.93R BLOCK ISLAND LGT RAIN 62 62 100 SW15G23 29.95S WESTERLY CLOUDY 66 63 90 W3 29.95R IN MA CITY SKY/WX TMP DP RH WIND PRES REMARKS BOSTON CLOUDY 68 67 96 SW13G20 29.88R WORCESTER CLOUDY 68 65 90 SW13 29.94R WESTFIELD MOCLDY 66 65 96 SE3 29.91R PROVINCETOWN CLOUDY 61 61 100 SW15G21 29.90F NANTUCKET LGT RAIN 61 60 97 SW12 29.96R VSB 1/2 $$ ANZ330-335-338-340-345-350-353-355-310800- COASTAL MARINE OBSERVATIONS STATION/POSITION TIME SKY/WX TEMP WIND PRES VSBY WAVE AIR SEA DIR/SP/G HT/PER (UTC) (F) (DEG/KT/KT) (MB) (MI) (FT/S) NY HARB ENTRANCE 0550 61 57 200/ 8/ 10 1013.5 3/ 7 20S FIRE ISLAND 0550 62 61 220/ 8/ 8 1013.8 3/ 7 GREAT SOUTH BAY 0630 65 70 240/ 12/ 14 N/A 23 SSW MONTAUK P 0650 61 58 220/ 14/ 16 1013.6 4/ 7 15 E BARNEGAT LI 0622 61 N/A 4/ 7 HUDSON CANYON 0550 63 60 1014.6 4/ 7 KINGS POINT 0600 69 62 1013.3 EXECUTION ROCKS NOT AVBL CENTRAL LI SOUND 0600 65 200/ 10/ 12 N/A 1 EASTERN LI SOUND NOT AVBL ROBBINS REEF 0618 70 180/ 8/ 9 1013.0 $$ >>>>>>>>>>>>>>>>>>>>>>>>>>>> KEY <<<<<<<<<<<<<<<<<<<<<<<<<<< > < > SKY/WX - SKY CONDITION/PRESENT WEATHER < > TMP - TEMPERATURE IN FAHRENHEIT < > DP - DEWPOINT IN FAHRENHEIT < > RH - RELATIVE HUMIDITY IN PERCENT < > WIND - DIRECTION AND SPEED IN MPH < > PRES - MEAN SEA LEVEL PRESSURE IN INCHES OF HG < > WCI - WIND CHILL INDEX < > VSB - VISIBILITY IN MILES < > HX - HEAT INDEX < > TC - TEMPERATURE IN CELSIUS < > VRB - VARIABLE WIND DIRECTION < > < >>>>>>>>>>>>>>>>>>>>>>>>>>>> KEY <<<<<<<<<<<<<<<<<<<<<<<<<<<

USA.gov is the U.S. government's official web portal to all federal, state and local government web resources and services.